Rochester, NY

7:10 PM EST on February 27, 2017 (GMT -0500)
Greater Rochester International

Weather History for KROC - January, 2012

Change the Weather History Date:

Thursday, January 26, 2012

  Actual Average Record
Temperature  
Mean Temperature 33 °F 24 °F  
Max Temperature 37 °F 32 °F 67 °F (1950)
Min Temperature 28 °F 17 °F -10 °F (1884)
Degree Days  
Heating Degree Days 32 41  
Month to date heating degree days 921 1049  
Since 1 July heating degree days 2906 3502  
Cooling Degree Days 0 0  
Month to date cooling degree days 0 0  
Year to date cooling degree days 0 0  
Moisture  
Dew Point 31 °F    
Average Humidity 88    
Maximum Humidity 100    
Minimum Humidity 75    
Precipitation  
Precipitation 0.17 in 0.08 in 0.78 in (1978)
Month to date precipitation 2.46 2.06  
Year to date precipitation 2.46 2.06  
Snow  
Snow 0.30 in 0.90 in 10.20 in (2000)
Month to date snowfall 13.7 23.8  
Since 1 July snowfall 18.9 53.0  
Snow Depth T in    
Sea Level Pressure  
Sea Level Pressure 29.95 in    
Wind  
Wind Speed 6 mph (ESE)    
Max Wind Speed 15 mph    
Max Gust Speed 18 mph    
Visibility 4 miles    
Events Rain , Snow    
T = Trace of Precipitation, MM = Missing Value Source: NWS Daily Summary

Daily Weather History Graph

Daily Weather History Graph

Search for Another Location

Airport or City:

Trip Planner

Search our weather history database for the weather conditions in past years. The results will help you decide how hot, cold, wet, or windy it might be!

Date:

Astronomy

Jan. 26, 2012 Rise Set
Actual Time 7:32 AM EST 5:14 PM EST
Civil Twilight 7:01 AM EST 5:45 PM EST
Nautical Twilight 6:27 AM EST 6:19 PM EST
Astronomical Twilight 5:53 AM EST 6:53 PM EST
Moon 8:51 AM EST (1/26) 9:13 PM EST (1/26)
Length of Visible Light 10h 43m
Length of Day
9h 42m
Waxing Crescent, 12% of the Moon is Illuminated
Jan 26
Waxing Crescent
Jan 30
First Quarter
Feb 7
Full
Feb 14
Last Quarter
Feb 21
New

Hourly Weather History & Observations

Time (EST) Temp. Windchill Dew Point Humidity Pressure Visibility Wind Dir Wind Speed Gust Speed Precip Events Conditions
12:10 AM 28.4 °F 24.6 °F 26.6 °F 93% 30.22 in 1.5 mi SSW 3.5 mph - 0.01 in Snow Light Snow
12:38 AM 28.4 °F - 26.6 °F 93% 30.21 in 2.5 mi Calm Calm - 0.01 in Snow Light Snow
12:54 AM 28.9 °F - 28.0 °F 96% 30.23 in 2.5 mi Calm Calm - 0.02 in Snow Light Snow
1:02 AM 28.4 °F - 28.4 °F 100% 30.21 in 2.0 mi Calm Calm - 0.00 in Snow Light Snow
1:54 AM 28.9 °F - 28.0 °F 96% 30.24 in 2.0 mi Calm Calm - 0.00 in Snow Light Snow
2:06 AM 28.4 °F - 28.4 °F 100% 30.21 in 1.8 mi Calm Calm - 0.00 in Snow Light Snow
2:54 AM 28.9 °F - 28.0 °F 96% 30.22 in 1.5 mi Calm Calm - 0.02 in Snow Light Snow
3:05 AM 28.4 °F 24.6 °F 28.4 °F 100% 30.19 in 2.0 mi South 3.5 mph - 0.00 in Snow Light Snow
3:54 AM 28.9 °F - 27.0 °F 92% 30.20 in 3.0 mi Calm Calm - 0.00 in Snow Light Snow
4:25 AM 28.4 °F - 26.6 °F 93% 30.18 in 3.0 mi Calm Calm - 0.00 in Snow Light Snow
4:54 AM 28.9 °F - 27.0 °F 92% 30.19 in 4.0 mi Calm Calm - 0.00 in   Overcast
5:54 AM 28.9 °F 25.2 °F 28.0 °F 96% 30.18 in 5.0 mi ESE 3.5 mph - N/A   Overcast
6:54 AM 30.0 °F 26.5 °F 28.0 °F 92% 30.17 in 6.0 mi ESE 3.5 mph - N/A   Overcast
7:54 AM 30.0 °F 26.5 °F 28.0 °F 92% 30.16 in 5.0 mi East 3.5 mph - N/A   Overcast
8:54 AM 30.9 °F 24.3 °F 28.0 °F 89% 30.13 in 5.0 mi East 6.9 mph - N/A   Overcast
9:54 AM 32.0 °F 24.8 °F 28.0 °F 85% 30.13 in 8.0 mi ESE 8.1 mph - N/A   Overcast
10:54 AM 32.0 °F 24.2 °F 28.0 °F 85% 30.09 in 8.0 mi ESE 9.2 mph - N/A   Overcast
11:54 AM 34.0 °F 27.2 °F 28.9 °F 82% 30.03 in 8.0 mi ESE 8.1 mph - N/A   Overcast
12:54 PM 35.1 °F 27.4 °F 28.9 °F 78% 29.96 in 8.0 mi ESE 10.4 mph - 0.00 in   Overcast
1:54 PM 34.0 °F 26.6 °F 30.0 °F 85% 29.93 in 6.0 mi ESE 9.2 mph - 0.00 in Rain Light Rain
2:19 PM 33.8 °F 27.0 °F 30.2 °F 87% 29.90 in 6.0 mi ESE 8.1 mph - 0.02 in Rain Light Rain
2:54 PM 34.0 °F 26.0 °F 30.9 °F 89% 29.90 in 4.0 mi ESE 10.4 mph - 0.03 in Rain Light Rain
3:54 PM 34.0 °F 27.2 °F 32.0 °F 92% 29.88 in 2.5 mi ESE 8.1 mph - 0.03 in Rain Light Rain
4:18 PM 33.8 °F 26.4 °F 32.0 °F 93% 29.84 in 2.0 mi ESE 9.2 mph - 0.00 in Rain Light Rain
4:47 PM 33.8 °F 27.0 °F 32.0 °F 93% 29.82 in 2.0 mi ESE 8.1 mph - 0.01 in Rain Light Rain
4:54 PM 34.0 °F 27.2 °F 32.0 °F 92% 29.84 in 2.0 mi ESE 8.1 mph - 0.01 in Rain Light Rain
5:15 PM 33.8 °F 27.0 °F 33.8 °F 100% 29.83 in 3.0 mi SE 8.1 mph - 0.00 in   Overcast
5:28 PM 33.8 °F 27.0 °F 33.8 °F 100% 29.83 in 6.0 mi ESE 8.1 mph - 0.00 in   Overcast
5:54 PM 35.1 °F 27.9 °F 33.1 °F 92% 29.84 in 5.0 mi ESE 9.2 mph - 0.01 in Rain Light Rain
6:24 PM 33.8 °F 27.7 °F 33.8 °F 100% 29.80 in 3.0 mi ESE 6.9 mph - 0.01 in Rain Light Rain
6:54 PM 34.0 °F 27.2 °F 33.1 °F 96% 29.81 in 5.0 mi ESE 8.1 mph - 0.02 in Rain Light Rain
7:00 PM 33.8 °F 26.4 °F 33.8 °F 100% 29.78 in 5.0 mi ESE 9.2 mph - 0.00 in Rain Light Rain
7:31 PM 35.6 °F 29.2 °F 33.8 °F 93% 29.76 in 4.0 mi SE 8.1 mph - 0.00 in Rain Light Rain
7:54 PM 35.1 °F 27.9 °F 34.0 °F 96% 29.77 in 6.0 mi SE 9.2 mph - 0.00 in Rain Light Rain
8:12 PM 35.6 °F 28.0 °F 33.8 °F 93% 29.74 in 6.0 mi SE 10.4 mph - 0.00 in Rain Light Rain
8:54 PM 36.0 °F 29.0 °F 34.0 °F 93% 29.73 in 9.0 mi SE 9.2 mph - 0.00 in   Overcast
9:54 PM 36.0 °F 31.1 °F 35.1 °F 97% 29.68 in 5.0 mi ESE 5.8 mph - 0.00 in Rain Light Rain
10:17 PM 35.6 °F 30.7 °F 35.6 °F 100% 29.65 in 2.5 mi SE 5.8 mph - 0.00 in Rain Light Rain
10:29 PM 35.6 °F 30.7 °F 35.6 °F 100% 29.65 in 3.0 mi SE 5.8 mph - 0.00 in Rain Light Rain
10:54 PM 37.0 °F 32.4 °F 36.0 °F 96% 29.64 in 3.0 mi ESE 5.8 mph - 0.00 in Rain Light Rain
11:15 PM 37.4 °F 32.8 °F 35.6 °F 93% 29.61 in 2.5 mi SE 5.8 mph - 0.01 in Rain Light Rain
11:54 PM 37.0 °F 31.6 °F 37.0 °F 100% 29.60 in 3.0 mi East 6.9 mph - 0.03 in Rain Light Rain